Tracking 30701 objects as of 14-Jun-2025
HD Live streaming from Space Station
objects crossing your sky now

STARLINK-4760

Track STARLINK-4760 now!
10-day predictions
STARLINK-4760 is classified as:


NORAD ID: 53828
Int'l Code: 2022-114L
Perigee: 545.7 km
Apogee: 548.0 km
Inclination: 53.2 °
Period: 95.4 minutes
Semi major axis: 6917 km
RCS: Unknown
Launch date: September 19, 2022
Source: United States (US)
Launch site: AIR FORCE EASTERN TEST RANGE (AFETR)
Your satellite tracking list
Your tracking list is empty




NASA's NSSDC Master Catalog

Two Line Element Set (TLE):
1 53828U 22114L   25165.42351799  .00001025  00000-0  82455-4 0  9991
2 53828  53.2232  68.3189 0001699  87.4104 272.7083 15.08843326152332
Source of the keplerian elements: AFSPC